Back to catalog

CZ-4C DEB

AliveSSO
NORAD 44616·DEBRIS·🇨🇳 China

Launched Mar 31, 2018 from Taiyuan Satellite Launch Center

Loading…

Next Passes (next 24 hours)

TLE

AgingSource: Space-Track

Epoch: Sep 10, 2026, 11:10 UTC

1 44616U 18031K   26253.46536279  .00003353  00000-0  29607-3 0  9995
2 44616  97.7948 338.0544 0005353  23.5271 336.6195 14.97047451438976

Track CZ-4C DEB in real time with AllMySat

Download on the App Store